Powrót do katalogu

STARLINK-30763

AktywnyŁącznośćVLEO
NORAD 58163·PAYLOAD·🇺🇸 United States

Wystrzelony Oct 29, 2023 z Vandenberg Space Force Base

Loading…

Następne Przeloty (najbliższe 24 godziny)

TLE

ŚwieżeSource: CelesTrak SupGP

Epoka: Sep 14, 2026, 20:51 UTC

1 58163C 23166P   26257.86923611  .00030024  00000+0  88733-3 0  2576
2 58163  53.1612  47.7066 0001201  76.3926 227.7631 15.34367074    19

Śledź STARLINK-30763 w czasie rzeczywistym z AllMySat

Download on the App Store